Regional Weather Roundup
Issued by NWS

Home | Current Version | Previous Version | Text Only | Print | Product List | Glossary On
Versions: 1 2 3 4 5 6 7 8 9 10 11 12 13 14 15 16 17 18 19 20 21 22 23 24 25 26 27 28 29 30 31 32 33 34 35 36 37 38 39 40 41 42 43 44 45 46 47 48 49 50
252
ASUS45 KSLC 210410
RWRUT

UTAH REGIONAL WEATHER ROUNDUP
NATIONAL WEATHER SERVICE SALT LAKE CITY UT
1000 PM MDT FRI APR 20 2018

UTZ001>011-023>025-210500-

NORTHERN UTAH

CITY           SKY/WX    TMP DP  RH WIND       PRES   REMARKS
BRIGHAM CITY   CLEAR     53  34  48 CALM      30.06R
HILL AFB       CLEAR     55  31  40 CALM      30.07R
LOGAN          CLEAR     54  32  43 N9        30.06R
OGDEN          CLEAR     51  33  50 S7        30.05R
SALT LAKE CITY PTCLDY    57  35  43 SE3       30.06R
TOOELE VALLEY  CLEAR     45  36  70 S8        30.09R
WENDOVER       CLEAR     59  20  22 N8        30.10R
HEBER CITY     CLOUDY    46  32  57 E5        30.05R
WEST JORDAN    PTCLDY    54  34  47 CALM      30.08R

$$

UTZ011>015-024>027-210500-

CENTRAL/NORTHEAST UTAH

CITY           SKY/WX    TMP DP  RH WIND       PRES   REMARKS
PROVO AIRPORT  CLOUDY    51  43  74 W5        30.09R
MOAB/CANYONLAN CLOUDY    50  35  56 W16       30.04R
DELTA          CLEAR     43  37  81 SE8       30.12R
PRICE          MOCLDY    40  40 100 E5        30.09R
ROOSEVELT      CLOUDY    43  37  81 CALM      30.12R
VERNAL         CLOUDY    41  40  96 E3        30.09R

$$

UTZ013>016-019>022-027-210500-

SOUTHERN UTAH

CITY           SKY/WX    TMP DP  RH WIND       PRES   REMARKS
BRYCE CANYON   CLEAR     34  28  79 N6        30.18R WCI  29
CEDAR CITY     CLEAR     41  34  76 CALM      30.14R
MILFORD        CLEAR     44  42  93 S5        30.13R
ST GEORGE      PTCLDY    58  33  39 E7        30.07R
HANKSVILLE     CLOUDY    52  32  46 N6        30.11R
BLANDING         N/A     40  29  66 CALM      30.14R

$$

REGIONAL REPORTS     COLORADO/ARIZONA

CITY           SKY/WX    TMP DP  RH WIND       PRES   REMARKS
CRAIG, CO      CLOUDY    38  36  92 SW13      30.00R WCI  30
GRAND JUNCTION CLOUDY    42  38  85 SE9       30.06R
RIFLE, CO      LGT RAIN  36  35  96 CALM      30.07R
MONTROSE, CO   LGT RAIN  40  31  70 N3        30.10R
CORTEZ, CO     PTCLDY    40  30  67 CALM      30.08R
COLORADO CITY    N/A     43  34  70 SE8       30.15R
PAGE, AZ       PTCLDY    50  39  66 CALM      30.09R
GRAND CANYON   CLEAR     30  30 100 CALM      30.18R
KINGMAN, AZ    CLEAR     55  23  28 E6        30.08R
FLAGSTAFF, AZ  CLEAR     33  26  75 CALM      30.16R

$$

REGIONAL REPORTS    NEVADA/IDAHO/WYOMING

CITY           SKY/WX    TMP DP  RH WIND       PRES   REMARKS
LAS VEGAS, NV  CLEAR     73  30  20 E7        30.00R
ELY, NY        CLEAR     49  14  24 CALM      30.20R
ELKO, NV       CLEAR     48  22  35 S5        30.19R
POCATELLO, ID  CLEAR     54  29  38 SW14      30.10R
BURLEY, ID     CLEAR     50  26  39 SW14G21   30.10R
FORT BRIDGER,  CLOUDY    40  38  95 S9        30.12R WCI  34
EVANSTON, WY   CLOUDY    47  27  45 NW5       30.11R
ROCK SPRINGS,  CLOUDY    37  31  78 SE5       30.11R WCI  33
KEMMERER, WY   PTCLDY    37  32  81 NW3       30.13R

$$




USA.gov is the U.S. government's official web portal to all federal, state and local government web resources and services.